Dewpoint
66 66 66 66 67 68 69 70 70 71 71 70 70 70 70 71 71 72 73 72 71 71 71 71 71 71 70 72 72 71 69 67 67 68 70 71 70 70 70 70 69 68 66
65 66 67 67 68 68 69 70 70 70 71 70 70 69 68 69 71 72 72 72 71 70 70 71 70 69 71 71 71 71 70 70 68 67 69 70 70 70 69 68 68 66 65
65 65 66 67 67 68 69 70 70 70 70 70 69 69 68 68 70 71 72 71 71 71 70 69 68 70 71 71 71 70 71 71 70 69 68 71 70 69 68 67 66 64 64
66 65 66 67 67 68 69 70 70 70 70 70 69 69 69 68 70 71 72 71 71 71 70 68 68 70 71 71 71 71 71 71 70 70 69 69 69 68 67 64 63 64 62
66 66 66 67 69 69 69 69 71 71 70 71 70 69 70 70 70 71 71 72 71 71 71 71 72 71 69 70 71 71 71 70 69 69 68 68 68 66 65 65 63 61 60
66 67 68 69 69 69 70 70 71 70 70 70 69 70 70 70 67 67 70 72 71 71 71 71 70 68 67 66 67 67 70 70 69 68 68 68 68 67 67 65 60 59 58
67 67 68 69 69 70 70 70 69 68 68 68 68 69 70 70 66 66 67 71 71 71 71 71 69 68 66 65 63 63 62 63 65 69 68 68 68 68 68 65 62 62 61
67 67 68 68 69 70 70 70 69 69 68 67 68 67 68 70 65 64 66 71 71 71 71 70 69 67 65 64 63 62 62 62 63 64 67 66 66 68 70 69 65 59 57
66 66 67 68 68 68 68 69 69 69 68 67 66 66 67 68 62 62 64 70 70 70 70 71 70 68 62 61 62 61 61 60 60 61 62 62 62 62 66 64 61 59 57
64 64 64 66 67 67 67 68 69 68 67 66 66 66 65 68 60 59 62 70 68 68 68 69 65 66 59 58 62 61 61 60 61 62 63 63 63 64 65 67 63 61 58
61 61 62 65 66 67 67 67 69 68 66 66 66 66 68 67 63 58 59 68 68 67 66 66 65 62 58 55 58 61 61 59 60 60 61 61 61 61 61 63 65 63 60
60 59 61 62 63 64 65 66 66 68 67 66 67 66 66 65 60 58 57 59 64 66 65 64 62 57 54 54 58 56 56 59 60 59 59 59 59 58 59 59 59 59 59
59 58 58 59 58 60 62 63 63 63 65 66 66 65 64 64 64 57 55 57 59 65 64 60 55 53 53 54 55 56 57 58 58 58 57 56 56 57 59 58 59 58 57
58 57 57 56 55 54 56 59 61 61 61 61 60 60 60 60 60 61 60 59 58 59 57 57 57 57 57 56 57 57 57 57 57 57 55 54 55 56 56 57 56 55 53
57 57 58 57 56 53 50 48 55 54 56 60 60 59 58 58 58 56 58 60 60 57 57 58 57 57 57 57 57 56 56 56 55 55 53 53 53 53 53 54 54 55 53
57 57 57 58 58 58 57 55 48 46 45 45 47 54 53 49 46 45 45 47 49 51 58 57 57 57 56 55 54 53 54 54 54 53 53 53 52 52 52 53 55 53 51
57 57 57 57 58 57 56 56 56 53 47 44 43 44 45 44 44 44 45 46 48 54 57 56 56 55 55 54 53 53 52 52 54 51 51 52 51 51 53 53 52 50 48
58 54 57 57 57 56 56 55 56 56 55 53 48 44 43 44 44 45 47 52 57 56 56 55 53 53 53 51 50 51 52 53 50 49 50 51 51 50 50 50 50 49 48
58 58 58 57 56 54 54 53 54 54 53 52 53 51 47 43 44 46 50 57 56 55 54 53 53 52 52 52 53 53 54 52 50 49 48 50 50 50 50 48 48 46 46
60 58 57 56 55 53 53 52 52 52 53 53 53 52 52 54 56 56 55 55 54 53 53 52 53 53 54 54 52 53 52 51 49 48 48 49 49 49 48 47 47 47 46
60 59 58 57 56 53 53 52 52 50 50 51 52 52 48 56 56 55 52 53 53 54 54 55 55 54 55 53 51 50 50 49 49 48 48 49 50 48 48 48 47 46 46
60 59 59 59 59 57 53 53 53 51 51 50 50 50 46 53 53 53 53 54 54 56 53 53 53 53 53 52 51 49 49 49 50 50 49 48 48 48 46 43 43 45 45
60 59 58 59 59 58 58 55 54 53 51 51 51 50 50 51 52 53 55 55 54 56 52 50 52 51 51 51 51 51 50 49 51 51 49 47 46 46 45 43 43 44 44
60 59 56 57 57 57 58 58 56 52 53 51 51 51 50 51 51 53 53 53 55 54 52 50 49 49 51 50 50 49 50 51 51 50 50 48 46 44 44 44 44 44 45
60 59 57 54 54 53 54 55 57 56 55 53 52 52 51 50 50 51 52 53 53 53 51 50 49 49 50 51 50 49 47 39 50 45 49 49 48 49 45 43 44 44 44
61 60 58 54 52 51 50 50 51 53 55 55 54 53 53 52 51 51 52 53 53 53 52 50 49 49 50 49 50 46 37 35 44 40 49 49 47 46 45 45 45 44 44
Lifted_Index
-1 -1 -1 -1 -1 -1 -1 -2 -2 -3 -3 -2 -2 -2 -2 -2 -3 -3 -4 -4 -4 -4 -3 -3 -3 -3 -3 -3 -3 -2 -2 -2 -2 -2 -1 -2 -2 -2 -1 -1 -0 -0 -0
-1 -1 -1 -1 -1 -1 -2 -2 -2 -3 -3 -3 -3 -2 -2 -2 -3 -3 -3 -4 -4 -3 -3 -3 -3 -3 -3 -3 -3 -2 -2 -2 -2 -2 -1 -2 -2 -2 -1 -1 -0 -0 -0
-0 -0 -0 -1 -1 -1 -2 -2 -2 -3 -3 -3 -3 -2 -2 -2 -2 -3 -3 -3 -3 -3 -3 -3 -3 -3 -3 -3 -3 -2 -2 -2 -2 -2 -2 -2 -2 -2 -1 -1 -0 -0 0
-1 -1 -0 -0 -1 -1 -2 -2 -3 -3 -3 -3 -3 -3 -2 -2 -2 -3 -3 -3 -3 -3 -3 -3 -3 -3 -3 -3 -3 -3 -2 -2 -2 -2 -2 -2 -2 -2 -1 -1 -0 0 0
-1 -1 -1 -1 -1 -1 -2 -2 -3 -3 -3 -3 -3 -3 -3 -2 -2 -2 -3 -3 -3 -3 -3 -3 -3 -3 -3 -3 -3 -3 -3 -2 -2 -2 -2 -2 -2 -2 -1 -1 -0 -0 0
-2 -1 -1 -2 -2 -2 -2 -3 -3 -3 -3 -3 -3 -3 -3 -3 -3 -3 -3 -3 -3 -3 -3 -3 -3 -3 -3 -3 -3 -3 -3 -2 -2 -2 -2 -2 -2 -2 -1 -1 -0 -0 -0
-2 -2 -2 -2 -2 -2 -3 -3 -3 -3 -2 -2 -2 -2 -3 -3 -3 -3 -3 -3 -3 -3 -3 -3 -3 -3 -3 -2 -2 -2 -2 -2 -2 -2 -2 -2 -2 -2 -1 -1 -1 -0 -0
-2 -2 -2 -3 -3 -3 -3 -3 -3 -3 -2 -2 -2 -2 -2 -2 -3 -3 -3 -3 -3 -3 -3 -3 -3 -3 -2 -2 -2 -2 -2 -1 -2 -2 -1 -1 -1 -1 -1 -1 -1 -0 -0
-2 -2 -3 -3 -3 -3 -2 -3 -3 -3 -3 -2 -2 -1 -1 -1 -2 -3 -3 -3 -3 -3 -3 -3 -3 -3 -2 -2 -2 -2 -1 -1 -1 -1 -1 -0 -0 -0 -0 -0 -0 -0 -0
-1 -1 -1 -2 -2 -2 -1 -2 -2 -3 -3 -3 -3 -2 -1 -1 -1 -2 -3 -3 -3 -3 -3 -3 -3 -3 -3 -2 -2 -2 -1 -1 -1 -0 -0 0 0 0 0 0 0 0 0
1 1 1 1 0 -0 -0 -1 -2 -2 -3 -3 -3 -2 -1 -0 -1 -2 -2 -3 -3 -2 -2 -2 -3 -3 -2 -2 -2 -2 -1 -1 -0 0 0 1 1 1 1 1 1 1 1
3 3 3 2 1 1 1 -0 -1 -1 -2 -3 -3 -2 -1 -1 -1 -1 -2 -2 -2 -1 -2 -2 -2 -2 -2 -2 -2 -1 -1 -0 0 1 1 1 2 2 2 2 2 2 2
3 3 3 2 2 1 1 0 -0 -1 -1 -2 -2 -2 -2 -2 -1 -1 -1 -1 -1 -1 -1 -1 -1 -1 -1 -1 -1 -1 -0 0 1 1 2 3 3 4 4 4 3 3 3
2 2 2 2 1 1 1 1 0 0 -0 -1 -1 -2 -2 -2 -1 -1 -1 -1 -0 -0 -1 -1 -1 -1 -1 -1 -0 -0 1 1 2 3 3 4 5 6 6 6 6 6 6
3 2 2 2 2 1 1 1 1 1 0 0 -0 -1 -1 -1 -1 -1 -1 -0 -0 0 -0 -0 -0 -0 -0 0 1 1 2 2 3 4 5 6 6 7 7 7 7 8 8
3 2 2 2 2 2 2 2 1 1 1 1 0 0 0 0 -0 -0 -0 0 0 0 0 0 0 1 1 1 2 2 2 3 4 5 6 6 7 7 7 7 8 9 9
2 2 2 3 3 2 2 2 2 2 2 1 1 1 1 1 1 1 1 1 1 1 1 1 2 2 2 2 2 3 3 4 5 6 6 7 7 8 8 8 8 9 9
1 1 2 2 2 2 3 3 3 3 3 3 2 2 2 2 2 2 2 2 2 2 2 3 3 3 3 3 4 4 4 5 6 7 8 8 9 9 9 9 9 9 9
1 1 1 1 2 2 2 2 3 3 3 3 3 3 3 3 3 4 4 4 4 4 4 4 4 4 4 5 5 6 6 7 8 9 9 9 9 9 9 9 9 9 9
1 1 1 1 2 3 3 3 3 3 4 4 3 4 4 4 5 5 5 5 5 5 5 5 6 5 5 6 6 7 7 8 9 10 10 10 9 9 9 9 9 9 9
0 0 1 1 2 3 3 3 3 4 4 4 4 4 4 5 5 5 6 6 6 5 5 6 6 7 7 7 7 7 8 9 9 10 9 9 9 9 8 8 9 9 9
-0 0 0 1 1 2 2 3 4 5 6 6 5 4 4 4 5 5 6 6 6 6 6 6 6 7 7 7 8 8 8 9 9 9 9 9 8 8 8 8 8 9 9
-0 -0 0 1 1 1 1 2 3 4 6 7 6 5 4 5 5 5 5 5 5 6 6 6 7 7 7 8 8 9 9 9 9 9 8 8 8 8 8 8 8 9 9
-0 -0 0 0 1 1 1 2 2 3 5 6 7 6 5 5 5 5 5 5 5 6 6 7 7 8 8 9 9 9 9 9 8 8 8 8 8 8 8 8 8 9 9
-1 -1 -0 -0 0 1 2 2 3 3 4 5 6 6 6 5 5 5 5 5 5 5 6 7 7 8 8 9 9 8 8 8 8 8 8 8 8 8 8 8 8 9 9
-1 -1 -1 -1 0 1 2 3 3 4 4 4 4 5 6 6 5 5 5 5 5 5 6 6 7 7 8 8 8 8 8 7 7 7 7 8 8 8 7 8 8 8 9